This is the latest recevied weather packets stored in our database for station/object N6GPM. If no packets are shown the sender has not sent any weather packets the latest 10 day(s).
| Time | Temp. | Humidity | Pressure | Rain* | Wind** | Luminosity | Snow |
|---|---|---|---|---|---|---|---|
| 1788215068 | 30.56° C | 39% | 1016.7 hPa | 0 mm | - | 719 W/m² | - |
| 1788214761 | 30.56° C | 39% | 1016.9 hPa | 0 mm | - | 733 W/m² | - |
| 1788214457 | 30.56° C | 38% | 1016.8 hPa | 0 mm | - | 747 W/m² | - |
| 1788214159 | 30.56° C | 38% | 1016.8 hPa | 0 mm | - | 761 W/m² | - |
| 1788213847 | 30.56° C | 39% | 1016.9 hPa | 0 mm | - | 776 W/m² | - |
| 1788213542 | 30.56° C | 39% | 1017 hPa | 0 mm | - | 792 W/m² | - |
| 1788213237 | 30.56° C | 39% | 1017 hPa | 0 mm | - | 797 W/m² | - |
| 1788212934 | 30.56° C | 39% | 1016.9 hPa | 0 mm | - | 807 W/m² | - |
| 1788212631 | 30.56° C | 40% | 1016.9 hPa | 0 mm | - | 824 W/m² | - |
| 1788212326 | 31.11° C | 38% | 1017.3 hPa | 0 mm | - | 844 W/m² | - |
| 1788212023 | 30.56° C | 38% | 1017.3 hPa | 0 mm | - | 848 W/m² | - |
| 1788211718 | 30.56° C | 38% | 1017.4 hPa | 0 mm | - | 860 W/m² | - |
| 1788211415 | 30.56° C | 38% | 1017.3 hPa | 0 mm | - | 867 W/m² | - |
| 1788211113 | 31.11° C | 38% | 1017.3 hPa | 0 mm | - | 869 W/m² | - |
| 1788210808 | 30.56° C | 38% | 1017.3 hPa | 0 mm | - | 884 W/m² | - |
| 1788210507 | 30° C | 39% | 1017.8 hPa | 0 mm | - | 893 W/m² | - |
| 1788210204 | 30.56° C | 39% | 1017.5 hPa | 0 mm | - | 902 W/m² | - |
| 1788209904 | 30.56° C | 39% | 1017.6 hPa | 0 mm | - | 911 W/m² | - |
| 1788209600 | 31.11° C | 38% | 1017.6 hPa | 0 mm | - | 919 W/m² | - |
| 1788209294 | 31.11° C | 38% | 1017.7 hPa | 0 mm | - | 926 W/m² | - |
| 1788208993 | 31.11° C | 38% | 1017.7 hPa | 0 mm | - | 938 W/m² | - |
| 1788208692 | 31.11° C | 37% | 1017.7 hPa | 0 mm | - | 942 W/m² | - |
| 1788208387 | 30.56° C | 39% | 1017.8 hPa | 0 mm | - | 956 W/m² | - |
| 1788208085 | 30° C | 40% | 1017.7 hPa | 0 mm | - | 958 W/m² | - |
| 1788207781 | 30° C | 40% | 1017.6 hPa | 0 mm | - | 962 W/m² | - |
* Rain latest hour (hover to see other rain measurements)
** Current wind speed in m/s (hover to see current wind gust speed)